Regional Weather Roundup
Issued by NWS Huntsville, AL

Home | Current Version | Previous Version | Text Only | Print | Product List | Glossary On
Versions: 1 2 3 4 5 6 7 8 9 10 11 12 13 14 15 16 17 18 19 20 21 22 23 24 25 26 27 28 29 30 31 32 33 34 35 36 37 38 39 40 41 42 43 44 45 46 47 48 49 50
000
ASUS44 KHUN 250910
RWRHUN

WEATHER ROUNDUP FOR THE TENNESSEE VALLEY
NATIONAL WEATHER SERVICE HUNTSVILLE AL
400 AM CDT SUN SEP 25 2016

ALZ001>004-251000-
NORTHWEST ALABAMA

CITY           SKY/WX    TMP DP  RH WIND       PRES   REMARKS
SHOALS AIRPORT CLEAR     64  61  90 CALM      30.06S
$$

ALZ005>007-016-251000-
NORTH CENTRAL ALABAMA

CITY           SKY/WX    TMP DP  RH WIND       PRES   REMARKS
DECATUR AP     CLEAR     65  63  93 CALM      30.05S
HUNTSVILLE AP  PTCLDY    69  61  75 CALM      30.04F
MERIDIANVILLE  CLEAR     63  57  82 CALM      30.06S
REDSTONE ARSN  PTCLDY    66  63  90 NE3       30.04S
VINEMONT AP    FAIR      63  60  88 CALM      30.07F
$$

ALZ008>010-251000-
NORTHEAST ALABAMA

CITY           SKY/WX    TMP DP  RH WIND       PRES   REMARKS
ALBERTVILLE    CLEAR     72  64  78 E5        30.06S
FORT PAYNE     CLEAR     63  59  88 CALM      30.07S
SCOTTSBORO AP  CLEAR     66  64  94 CALM      30.07S
SCOTTSBORO HCN   N/A     64 N/A N/A MISG        N/A
VALLEY HEAD      N/A     64 N/A N/A MISG        N/A
$$

TNZ076-096-097-251000-
SOUTHEASTERN MIDDLE TENNESSEE

CITY           SKY/WX    TMP DP  RH WIND       PRES   REMARKS
TULLAHOMA      CLEAR     63  61  94 CALM      30.09S
WINCHESTER     CLEAR     64  63  94 CALM      30.08S
$$

...SURROUNDING SITES...

CITY           SKY/WX    TMP DP  RH WIND       PRES   REMARKS
ATLANTA        PTCLDY    73  66  78 CALM      30.07R
ANNISTON       PTCLDY    69  62  78 CALM      30.06R
BIRMINGHAM     PTCLDY    74  61  63 CALM      30.05S
CHATTANOOGA    CLEAR     69  63  81 CALM      30.07S
CORINTH        FAIR      66  64  94 CALM      30.04R FOG
DALTON         CLEAR     64  64 100 CALM      30.07S
GADSDEN        PTCLDY    69  63  81 CALM      30.06S
GOLDEN TRNGL   PTCLDY    70  61  73 CALM      30.02S
HALEYVILLE     FAIR      64  62  93 CALM      30.08
JACKSON TN       N/A    N/A N/A N/A MISG      30.05S
MEMPHIS        CLEAR     79  66  64 E5        30.03S
NASHVILLE      CLEAR     67  64  90 CALM      30.08S FOG
OXFORD MS      FAIR      70  63  78 CALM      30.05S
ROME           CLEAR     66  61  84 CALM      30.06S
SAVANNAH       PTCLDY    64  64 100 CALM      30.04S FOG
TUPELO         PTCLDY    70  64  81 CALM      30.03S
TUSCALOOSA     PTCLDY    69  67  93 CALM      30.01S
$$

...GULF COAST WEATHER...

CITY           SKY/WX    TMP DP  RH WIND       PRES   REMARKS
GULFPORT       CLEAR     75  74  96 NW3       30.00S
PASCAGOULA     CLEAR     70  70 100 CALM      30.01S FOG
MOBILE         CLEAR     74  70  87 NW3       30.02S
GULF SHORES    MOSUNNY   74  74 100 E3        30.01R
PENSACOLA      CLEAR     75  73  93 W3        29.99F THUNDER
DESTIN         CLEAR     79  73  82 N5        29.99S
PANAMA CITY    CLEAR     75  74  97 CALM      29.99S
APPALACHICOLA  CLEAR     75  75 100 CALM      29.99R
$$




USA.gov is the U.S. government's official web portal to all federal, state and local government web resources and services.